[[{"header":{"parameterUnit":"m.s-1","parameterCategory":1,"la1":30.2992,"la2":30.254,"lo1":-89.0895,"lo2":-89.0443,"dy":0.0025,"dx":0.0025,"nx":19,"ny":19,"refTime":"2026-03-31T21:00:00:Z","depth":0,"parameterNumber":2,"parameterNumberName":"U-component_of_WINDS"},"data":[0,0,0,-3.5719,-3.5723,-3.592,-3.5921,-3.616,-3.6162,0,0,0,0,0,0,0,0,0,0,0,-3.565,-3.5651,-3.5719,-3.5723,-3.592,-3.5921,-3.616,-3.6162,0,0,0,0,0,0,0,0,0,0,0,-3.5649,-3.565,-3.5652,-3.5724,-3.592,-3.5921,-3.6159,-3.6016,0,0,0,0,0,0,0,0,0,0,-3.5828,-3.5751,-3.565,-3.5652,-3.5725,-3.5919,-3.5921,-3.601,-3.6025,-3.6065,0,-3.6094,0,-3.6132,-3.6177,-3.6178,0,0,0,-3.5733,-3.5738,-3.5801,-3.5652,-3.5727,-3.5919,-3.5834,-3.6018,-3.6036,-3.6085,-3.6097,-3.6107,-3.6136,-3.6179,-3.618,-3.6372,-3.6372,0,0,-3.5722,-3.5679,-3.5789,-3.5812,-3.5777,-3.5827,-3.584,-3.6029,-3.6041,-3.6098,-3.6113,-3.6139,-3.618,-3.6182,-3.6372,-3.6372,0,0,0,-3.5684,-3.5671,-3.573,-3.5802,-3.5838,-3.5833,-3.5847,-3.6032,-3.6055,-3.6115,-3.6142,-3.6181,-3.6184,-3.6371,-3.6372,-3.6352,0,0,0,-3.5678,-3.565,-3.5725,-3.5701,-3.5834,-3.5937,-3.5845,-3.6042,-3.6065,-3.6141,-3.6181,-3.6186,-3.6371,-3.6372,-3.6352,-3.635,0,0,0,-3.5641,-3.5645,-3.567,-3.5698,-3.5781,-3.5935,-3.5968,-3.6048,-3.6081,-3.6178,-3.6187,-3.637,-3.6371,-3.6351,-3.6349,-3.6389,0,0,0,-3.5589,-3.5649,-3.5669,-3.5748,-3.5779,-3.592,-3.5968,-3.6076,-3.6157,-3.6183,-3.6371,-3.6372,-3.6351,-3.6349,-3.6388,-3.6413,-3.6419,0,0,-3.5642,-3.5654,-3.5705,-3.5728,-3.5854,-3.5894,-3.602,-3.6136,-3.6185,-3.6308,-3.6313,-3.6352,-3.6349,-3.6389,-3.6473,-3.6477,0,0,0,-3.5707,-3.5743,-3.5786,-3.586,-3.595,-3.6028,-3.6128,-3.6173,-3.6279,-3.6238,-3.6379,-3.6379,-3.6403,-3.6417,-3.6422,-3.6446,-3.6377,-3.6376,-3.6376,-3.572,-3.578,-3.5868,-3.5952,-3.6025,-3.6131,-3.6196,-3.6274,-3.6313,-3.6346,-3.6382,-3.6426,-3.644,-3.6444,-3.6469,-3.6402,-3.6401,-3.6401,-3.6401,-3.5803,-3.5863,-3.5916,-3.602,-3.6085,-3.6175,-3.6282,-3.6308,-3.6403,-3.6402,-3.6428,-3.642,-3.6447,-3.6472,-3.6401,-3.6401,-3.6401,-3.6401,-3.6401,-3.5816,-3.5856,-3.5908,-3.6025,-3.611,-3.6196,-3.6285,-3.6342,-3.6397,-3.6422,-3.6467,-3.6468,-3.6475,-3.644,-3.644,-3.644,-3.644,-3.644,-3.6441,-3.5809,-3.5869,-3.5935,-3.6038,-3.6096,-3.618,-3.629,-3.635,-3.6431,-3.6466,-3.6467,-3.6504,-3.6438,-3.642,-3.6443,-3.6443,-3.6442,-3.6442,-3.6442,-3.5869,-3.5865,-3.5967,-3.6025,-3.6153,-3.6235,-3.6309,-3.6426,-3.6485,-3.6528,-3.6563,-3.6504,-3.6521,-3.6519,-3.6504,-3.6548,-3.6548,-3.6548,-3.6548,-3.5879,-3.5894,-3.6014,-3.6103,-3.6197,-3.6275,-3.6394,-3.6484,-3.6576,-3.6617,-3.662,-3.6606,-3.66,-3.6621,-3.6616,-3.6603,-3.6671,-3.6672,-3.6672,-3.592,-3.5947,-3.6034,-3.6122,-3.6228,-3.6319,-3.6434,-3.6539,-3.6643,-3.6678,-3.6651,-3.6645,-3.6624,-3.6613,-3.6643,-3.6634,-3.6612,0,0]},{"header":{"parameterUnit":"m.s-1","parameterCategory":1,"la1":30.2992,"la2":30.254,"lo1":-89.0895,"lo2":-89.0443,"dy":0.0025,"dx":0.0025,"nx":19,"ny":19,"refTime":"2026-03-31T21:00:00:Z","depth":0,"parameterNumber":3,"parameterNumberName":"V-component_of_WINDS"},"data":[0,0,0,3.4494,3.4493,3.4423,3.4422,3.4311,3.431,0,0,0,0,0,0,0,0,0,0,0,3.4504,3.4503,3.4494,3.4492,3.4423,3.4422,3.4311,3.431,0,0,0,0,0,0,0,0,0,0,0,3.4504,3.4503,3.4501,3.4492,3.4423,3.4422,3.4312,3.4371,0,0,0,0,0,0,0,0,0,0,3.4443,3.4441,3.4503,3.4501,3.4492,3.4423,3.4422,3.4375,3.4368,3.4334,0,3.4303,0,3.4305,3.4301,3.4301,0,0,0,3.45,3.4446,3.4439,3.4501,3.4491,3.4423,3.4456,3.4371,3.4363,3.4325,3.4302,3.4298,3.4303,3.4301,3.43,3.4092,3.4091,0,0,3.4503,3.4484,3.4444,3.4433,3.4445,3.4458,3.4454,3.4367,3.4339,3.4302,3.4296,3.4302,3.43,3.4299,3.4094,3.4092,0,0,0,3.451,3.4486,3.4481,3.4437,3.4426,3.4456,3.4451,3.4343,3.4343,3.4295,3.43,3.4299,3.4297,3.4095,3.4093,3.4013,0,0,0,3.4512,3.449,3.4482,3.4469,3.4428,3.4384,3.4429,3.4349,3.434,3.4301,3.4299,3.4296,3.4097,3.4094,3.4018,3.3977,0,0,0,3.4512,3.449,3.4476,3.4468,3.4438,3.4386,3.4381,3.4348,3.4343,3.4301,3.4296,3.4098,3.4095,3.4023,3.3984,3.3919,0,0,0,3.4504,3.44,3.4475,3.4361,3.4439,3.4338,3.4382,3.4307,3.4261,3.4298,3.4096,3.4093,3.4024,3.3989,3.3924,3.3862,3.3834,0,0,3.4362,3.4383,3.4318,3.4382,3.4264,3.435,3.4219,3.4193,3.4204,3.4129,3.4124,3.4016,3.3985,3.392,3.3682,3.366,0,0,0,3.4266,3.4219,3.4192,3.4151,3.4133,3.4115,3.4112,3.4104,3.4042,3.4163,3.3975,3.3957,3.392,3.3891,3.3872,3.3842,3.4079,3.4079,3.408,3.4033,3.4061,3.3956,3.3976,3.3935,3.3938,3.3907,3.3896,3.3928,3.3884,3.3861,3.3714,3.368,3.3666,3.3635,3.383,3.383,3.3829,3.3829,3.3829,3.3769,3.3823,3.3742,3.377,3.3701,3.3701,3.3728,3.3667,3.3732,3.37,3.3769,3.364,3.3615,3.3823,3.3824,3.3825,3.3826,3.3826,3.3681,3.3657,3.3653,3.3601,3.3557,3.358,3.3522,3.3548,3.3572,3.3541,3.3522,3.3523,3.3529,3.353,3.353,3.3529,3.3529,3.3528,3.3528,3.3529,3.3527,3.3477,3.3455,3.3435,3.3412,3.3418,3.3399,3.3384,3.3408,3.3408,3.3447,3.3623,3.3668,3.352,3.3522,3.3523,3.3523,3.3524,3.3312,3.3368,3.329,3.3271,3.325,3.3208,3.3245,3.3204,3.3192,3.3163,3.3211,3.3337,3.3358,3.3373,3.341,3.3205,3.3205,3.3205,3.3205,3.3188,3.3204,3.3134,3.3103,3.3076,3.3103,3.3016,3.3021,3.3034,3.3029,3.3063,3.3114,3.3129,3.3141,3.3161,3.3196,3.2941,3.2941,3.2941,3.3058,3.3074,3.2994,3.3013,3.3,3.2988,3.2908,3.287,3.2895,3.293,3.3026,3.3037,3.312,3.3146,3.318,3.3211,3.3276,0,0]}]]